Regional Weather Roundup
Issued by NWS

Home | Current Version | Previous Version | Graphics & Text | Print | Product List | Glossary On
Versions: 1 2 3 4 5 6 7 8 9 10 11 12 13 14 15 16 17 18 19 20 21 22 23 24 25 26 27 28 29 30 31 32 33 34 35 36 37 38 39 40 41 42 43 44 45 46 47 48 49 50
900
ASUS44 KLIX 182201
RWRLA
LOUISIANA WEATHER ROUNDUP
NATIONAL WEATHER SERVICE NEW ORLEANS LA
400 PM CST THU DEC 18 2014

NOTE: "FAIR" INDICATES FEW OR NO CLOUDS BELOW 12,000 FEET WITH NO
      SIGNIFICANT WEATHER AND/OR OBSTRUCTIONS TO VISIBILITY.
      SKY/WX - SKY CONDITION AND SIGNIFICANT WEATHER.
      TMP - AIR TEMPERATURE.    DP   - DEWPOINT TEMPERATURE.
      RH  - RELATIVE HUMIDITY.  PRES - PRESSURE.
      HX  - HEAT INDEX.         WCI  - WIND CHILL INDEX.

*  THESE STATIONS ARE NOT NWS OR FAA STATIONS AND ARE NOT UNDER
   NWS QUALITY CONTROL.

LAZ040-048-061>063-065-066-069-182300-
SOUTHEAST LOUISIANA

CITY           SKY/WX    TMP DP  RH WIND       PRES   REMARKS
N.O. AUDUBON     N/A     66  56  71 MISG        N/A
N.O. INTL ARPT CLOUDY    66  55  67 SE9       30.08F
N.O. LAKEFRONT CLOUDY    66  54  65 SE8       30.09F
N.O. DOWNTOWN* CLOUDY    64  54  68 SE7       30.09F
SLIDELL        CLOUDY    62  52  69 SE7       30.08F
BATON ROUGE    CLOUDY    58  52  80 VRB7      30.10R
BOOTHVILLE     PTSUNNY   68  57  68 E6        30.10S
BELLE CHASSE   CLOUDY    64  56  75 SE9       30.08F
BOGALUSA*      RAIN      59  53  80 N9        30.13R
GALLIANO*      CLOUDY    67  57  71 MISG      30.08F
NEW ROADS*     RAIN      55  55  97 NE6       30.09F
GONZALES*      NOT AVBL
HAMMOND*       NOT AVBL
HOUMA*           N/A     66  57  72 E12       30.07F
PORT FOURCHON* MOCLDY    66  61  82 SE8       30.11F

$$

LAZ041-044-053-054-182300-
SOUTHWEST LOUISIANA

CITY           SKY/WX    TMP DP  RH WIND       PRES   REMARKS
LAKE CHARLES   CLOUDY    63  55  75 NE9       30.06R
LAFAYETTE      CLOUDY    63  56  78 NE5       30.07F
PATTERSON      CLOUDY    63  61  94 SE8       30.07F
SALT POINT       N/A     65  60  84 SE6       30.06S
NEW IBERIA     LGT RAIN  66  56  70 NE3       30.08R
CHENAULT AIRPK CLOUDY    63  54  72 N6        30.07R

$$

LAZ027-028-182300-
CENTRAL LOUISIANA

CITY           SKY/WX    TMP DP  RH WIND       PRES   REMARKS
FORT POLK      CLOUDY    55  53  92 NE6       30.09R
ALEXANDRIA INT CLOUDY    53  50  89 E5        30.10S
ALEXANDRIA     CLOUDY    53  49  86 VRB3      30.12R

$$

LAZ001-002-182300-
NORTHWEST LOUISIANA

CITY           SKY/WX    TMP DP  RH WIND       PRES   REMARKS
SHREVEPORT     CLOUDY    52  46  80 N6        30.12R
BARKSDALE AFB  NOT AVBL
DTN SHREVEPORT CLOUDY    51  45  79 NE5       30.13R

$$

LAZ014-016-182300-
NORTHEAST LOUISIANA

CITY           SKY/WX    TMP DP  RH WIND       PRES   REMARKS
MONROE         PTSUNNY   54  46  74 N6        30.14S
TALLULAH       CLOUDY    54  44  69 SE7       30.14S

$$




USA.gov is the U.S. government's official web portal to all federal, state and local government web resources and services.